Regional Weather Roundup
Issued by NWS New Orleans/Baton Rouge, LA

Home | Current Version | Previous Version | Text Only | Print | Product List | Glossary On
Versions: 1 2 3 4 5 6 7 8 9 10 11 12 13 14 15 16 17 18 19 20 21 22 23 24 25 26 27 28 29 30 31 32 33 34 35 36 37 38 39 40 41 42 43 44 45 46 47 48 49 50
000
ASUS44 KLIX 270211
RWRLIX
NEW ORLEANS REGIONAL WEATHER ROUNDUP
NATIONAL WEATHER SERVICE NEW ORLEANS LA
900 PM CDT THU MAR 26 2015

NOTE: "FAIR" INDICATES FEW OR NO CLOUDS BELOW 12,000 FEET WITH NO
      SIGNIFICANT WEATHER AND/OR OBSTRUCTIONS TO VISIBILITY.
      SKY/WX - SKY CONDITION AND SIGNIFICANT WEATHER.
      TMP - AIR TEMPERATURE.     DP    - DEWPOINT TEMPERATURE.
      RH  - RELATIVE HUMIDITY.   PRES  - PRESSURE.
      HI  - HEAT INDEX.          WCI   - WIND CHILL INDEX.

*  THESE STATIONS ARE NOT NWS OR FAA STATIONS AND ARE NOT UNDER
   NWS QUALITY CONTROL.

LAZ038-040-048-061>063-065>067-069-270300-
SOUTHEAST LOUISIANA

CITY           SKY/WX    TMP DP  RH WIND       PRES   REMARKS
N.O. AUDUBON     N/A     66  66 100 MISG        N/A
N.O. INTL ARPT CLOUDY    65  60  84 CALM      29.88S
N.O. LAKEFRONT CLOUDY    67  61  81 NW8       29.88S
SLIDELL        MOCLDY    61  61 100 S6        29.87S
BATON ROUGE    CLOUDY    59  57  93 NW10      29.92R
BOOTHVILLE     CLOUDY    63  61  93 CALM      29.87S
BELLE CHASSE   MOCLDY    64  61  90 CALM      29.87S FOG
BOGALUSA*        N/A     65  61  86 W3        29.88R
GALLIANO*      MOCLDY    54  54  98 CALM      29.89R FOG
NEW ROADS*     CLOUDY    56  51  85 NW13      29.96R
GONZALES*      CLOUDY    65  65 100 SW3       29.89R
HAMMOND*       CLOUDY    66  63  88 CALM      29.89S
HOUMA*         MOCLDY    63  63  99 W3        29.88S FOG
PORT FOURCHON* CLEAR     68  64  88 NW6       29.91R

$$

MSZ070-080>082-270300-
SOUTHERN MISSISSIPPI

CITY           SKY/WX    TMP DP  RH WIND       PRES   REMARKS
MCCOMB         CLOUDY    56  53  90 N17G29    29.92R
GULFPORT       CLOUDY    64  60  87 W6        29.86R
BILOXI         CLOUDY    66  62  87 VRB3      29.85S
PASCAGOULA     CLOUDY    65  63  93 SW3       29.85S
STENNIS ARPT*  MOCLDY    63  59  88 CALM      29.88S

$$

COASTAL OBSERVATIONS
LAKE AND NEARSHORE STATIONS

STATION/POSITION TIME  TEMP    WIND        PRES    WAVE
                       AIR SEA DIR/SP/G            HT/PER
                 (UTC) (F)     (DEG/KT/KT) (MB)    (FT/S)
PASCAGOULA       0100   67     220/  7/ 10 1010.1
WAVELAND YACHT   0100   64 71  240/  3/  4 1011.5
GRAND ISLE       0100   67 71   CALM  /  3 1011.3
SOUTHWEST PASS   0100   63 51  160/  7/ 10 1010.8
NEW CANAL        0100   66     270/  5/  7 1012.0
SHELL BEACH      0100   65 71  260/  5/  5 1011.7

OFFSHORE STATIONS

STATION/POSITION TIME  TEMP    WIND        PRES    WAVE
                       AIR SEA DIR/SP/G            HT/PER
                 (UTC) (F)     (DEG/KT/KT) (MB)    (FT/S)
64 S DAUPHIN ISL 0150   70 73  170/ 21/ 25 1009.4    3/ 6

$$



USA.gov is the U.S. government's official web portal to all federal, state and local government web resources and services.